Vertical_Velocity
-1 -0 1 1 -1 0 -0 2 -0 -2 1 -0 -4 0 1 -4 -3 -1 -1 -2 0 -4 -7 -14 2 -9 -1 1 39 8 -12 1 4 -6 -2 1 4 0 -7 -1 -5 -6 1 1 -2
-0 -2 1 1 -3 1 -0 0 -1 -2 -1 1 -2 -1 4 -5 -2 2 0 -0 1 -4 2 -0 2 -3 -12 -1 57 32 -17 4 -6 1 -0 -3 3 -3 -7 -4 -3 -0 -4 -1 -2
-1 1 -2 1 -1 1 2 -1 1 1 -2 2 -1 -2 3 -2 -5 -1 0 -2 1 -5 -12 16 -6 10 13 42 52 -8 -8 -5 -1 -2 -4 -7 -7 -4 1 -4 -4 -3 -4 -0 -2
-1 1 -2 -1 0 1 0 2 1 0 -0 -0 -1 -1 -2 -2 5 -4 1 -3 2 -5 -20 26 -3 6 -4 -6 6 -26 4 4 -5 -2 -6 -4 -6 -9 -5 -1 -7 -5 -3 -4 -1
-1 2 1 -5 -1 0 -0 2 -4 1 -1 -1 2 2 0 0 -5 -2 -3 -0 3 -5 21 -0 -6 -2 1 2 -2 2 -0 -4 -4 -5 -6 -4 -1 1 0 -3 0 -1 1 1 3
2 0 1 -2 -2 -3 2 -2 1 1 0 -2 1 -5 -3 5 -3 3 -4 4 -3 18 -11 12 -0 -9 -1 -1 0 -3 -2 0 2 -0 -4 -3 -5 -1 -4 -2 -1 -2 -1 -2 -5
5 -1 1 1 -2 -3 2 -1 -1 2 1 -1 0 -1 -2 -0 1 5 -3 -0 -0 1 1 2 -4 3 -5 -3 4 3 -16 2 1 -2 -3 -2 -2 -4 -2 -2 -1 -5 -5 -1 -5
-1 -3 4 -2 1 -1 1 -2 -0 1 1 -2 -0 1 1 1 1 3 -3 -2 -4 -12 -1 6 -4 -3 -3 -0 -2 -8 8 -9 0 -2 -4 -4 -5 -4 -2 -2 -2 -2 -1 -2 1
-2 2 1 -1 1 2 -0 -3 1 -0 2 -2 -0 -5 -1 0 -4 0 -9 1 -1 -6 -10 9 2 -4 -1 -6 -3 6 2 -1 0 1 -3 -4 0 -1 -1 1 1 2 1 -0 -3
-1 -0 1 4 -4 3 -1 -2 -0 3 1 -3 -0 2 -4 -2 -2 3 1 0 9 -5 -2 2 1 -14 2 0 8 -13 22 -1 0 -4 -2 -4 8 -3 -0 1 -1 -3 -5 -3 -2
5 -0 -4 1 -5 5 -0 4 -2 5 1 -2 -0 4 -1 5 0 4 -3 -7 5 -7 -1 -3 0 3 7 7 -20 33 -5 7 5 -6 -1 2 -4 -2 -1 -2 -1 0 -0 -1 -3
8 0 -3 1 1 2 -2 -8 4 2 -0 2 -5 3 -1 -9 3 5 -3 -7 5 6 1 -5 32 0 -8 -4 1 -11 5 5 -2 -2 -0 -2 -0 -4 -2 -0 -2 -1 -1 0 -3
3 -3 -3 1 0 -1 1 -0 3 4 -2 1 -2 -2 -1 1 6 -5 4 -4 2 -1 -1 20 -11 -1 -3 -3 -6 5 -1 -16 15 -4 -6 2 8 -2 -3 -3 2 -0 1 2 -1
-4 -6 5 -0 1 -0 2 -3 -4 2 2 -3 1 -3 1 0 2 4 1 -12 -4 16 20 -4 -1 -4 -4 15 8 -2 6 -6 -3 1 16 -5 -2 -4 -1 -1 -3 -2 -1 1 -1
2 -1 5 -3 16 -6 2 8 4 1 -2 0 -6 3 -5 4 -5 -2 1 -0 6 -4 -3 2 5 -1 4 -1 -1 8 -3 -4 -1 0 9 2 5 12 -1 -1 3 -1 -0 2 -0
-3 5 -3 7 1 -2 5 1 0 8 -9 -3 -6 -1 1 -2 3 -2 3 -2 -3 -3 -8 -4 0 -4 8 -1 -2 -2 -1 -1 -3 -5 4 -8 -3 17 -11 -14 -3 -1 -1 -2 -1
1 2 -0 -3 -9 -5 3 2 -0 -0 -2 -6 -2 -1 -0 -1 1 -1 2 -4 -4 -3 -0 -2 -3 2 -3 -3 -1 -2 0 2 4 9 -5 0 -1 -6 5 5 12 -7 -8 -5 -3
-4 1 0 -2 2 1 -1 11 -4 -1 7 6 -4 2 -5 -2 1 2 2 -1 0 1 4 -2 0 3 2 -0 4 -6 2 -6 -0 2 6 -4 -5 13 -4 0 -4 7 4 -1 -2
2 -3 -3 1 5 4 3 6 -10 0 -6 2 -12 -1 5 -3 -1 -0 3 5 -5 -4 2 -4 0 -2 1 -3 1 6 1 -0 5 -2 2 2 9 3 1 -5 -3 -1 4 -1 -2
21 -3 -4 4 5 2 11 -8 -2 0 2 0 2 -6 -1 0 -1 -2 1 -4 8 -1 1 3 2 -0 -4 2 4 -7 4 -0 -2 -2 -0 -7 5 20 -3 -3 -1 -2 2 3 1
17 2 6 6 10 8 -12 -16 9 -1 2 -1 -5 1 -11 -1 -4 -6 14 -6 10 -3 4 0 -1 -2 -2 -3 -1 -2 -1 1 -2 -3 2 0 4 3 3 -3 -6 -2 -4 6 1
-0 2 -19 23 5 -1 -11 -12 8 -2 1 -1 -1 10 -2 -4 -1 11 -8 22 3 -2 4 2 1 -4 2 -8 -5 -4 -2 1 0 -2 -2 5 -10 -1 2 -2 -1 2 -3 1 1
14 5 5 22 -3 -4 1 -7 5 -1 -4 1 2 4 3 -5 -1 -8 20 4 -4 1 5 -4 4 1 0 -4 -2 -5 2 -5 2 3 -3 0 -0 -4 -0 1 3 -3 1 0 3
33 6 6 0 5 4 3 -5 2 4 3 -1 1 -0 -2 -8 -12 -6 3 -9 -2 -1 3 3 -1 -3 -2 -1 0 -0 2 3 -0 2 -6 -16 0 3 -10 2 -0 1 2 -0 4
-2 -7 -7 -24 -5 5 0 -1 2 -5 0 2 0 3 1 4 -1 -4 2 -6 0 -4 1 5 -4 3 -2 3 -3 -1 0 1 -6 7 -6 -3 6 36 16 3 0 2 3 3 3
-3 -8 -6 -7 22 8 2 -2 2 0 -3 -3 -1 3 -0 -1 -1 -1 1 -9 -0 -2 6 2 -3 1 -5 0 -2 -1 -1 -4 -3 -1 -9 9 -28 18 18 3 -4 3 -1 0 -1
8 12 -2 -16 -4 1 -15 -12 -3 10 2 4 -5 4 3 -2 0 -2 -2 -3 2 -3 4 1 3 3 -5 2 5 -4 -11 -2 3 -3 8 -3 6 2 22 -3 -1 -1 2 -1 1
Height
3172 3172 3173 3173 3173 3174 3173 3173 3172 3174 3176 3177 3177 3177 3178 3180 3178 3179 3179 3179 3176 3174 3174 3175 3178 3175 3175 3175 3179 3179 3181 3186 3189 3190 3192 3193 3196 3197 3200 3203 3209 3212 3214 3216 3217
3171 3172 3172 3174 3174 3174 3175 3174 3174 3174 3177 3179 3179 3178 3179 3181 3180 3181 3181 3180 3179 3177 3177 3179 3182 3181 3179 3180 3183 3177 3176 3180 3186 3192 3192 3196 3199 3201 3203 3208 3212 3214 3216 3217 3219
3170 3171 3170 3173 3174 3174 3176 3176 3176 3176 3177 3179 3181 3179 3180 3182 3181 3183 3182 3183 3182 3180 3179 3185 3186 3186 3185 3186 3187 3187 3186 3187 3190 3193 3197 3198 3202 3206 3209 3211 3213 3216 3218 3219 3219
3170 3170 3169 3172 3174 3174 3177 3177 3177 3178 3178 3179 3181 3181 3181 3182 3186 3183 3184 3185 3185 3183 3184 3189 3189 3188 3184 3185 3187 3185 3192 3191 3193 3198 3201 3203 3206 3206 3210 3213 3216 3217 3219 3219 3219
3168 3169 3169 3170 3173 3174 3176 3178 3179 3179 3180 3180 3181 3182 3182 3182 3184 3185 3186 3187 3187 3186 3190 3191 3190 3192 3187 3186 3186 3186 3191 3194 3198 3202 3203 3205 3207 3209 3211 3214 3216 3217 3217 3218 3218
3167 3167 3168 3169 3171 3174 3175 3178 3179 3180 3181 3182 3180 3181 3181 3184 3184 3185 3187 3188 3188 3193 3191 3193 3192 3192 3190 3190 3189 3191 3193 3196 3200 3202 3204 3207 3209 3211 3214 3215 3216 3217 3217 3218 3217
3165 3166 3166 3167 3170 3173 3175 3177 3179 3180 3181 3182 3181 3181 3181 3183 3183 3185 3187 3189 3190 3193 3192 3190 3192 3196 3194 3193 3195 3193 3194 3200 3203 3205 3207 3210 3212 3211 3213 3214 3216 3216 3217 3217 3217
3163 3164 3165 3165 3168 3171 3173 3176 3179 3180 3181 3181 3181 3181 3181 3183 3183 3185 3188 3189 3189 3190 3192 3192 3194 3195 3197 3198 3201 3200 3204 3204 3208 3208 3210 3213 3214 3213 3214 3215 3215 3216 3216 3217 3217
3162 3163 3164 3164 3166 3169 3172 3175 3178 3179 3180 3181 3182 3180 3181 3182 3184 3185 3186 3190 3192 3193 3194 3195 3195 3197 3199 3201 3207 3205 3207 3206 3209 3211 3211 3213 3213 3212 3214 3214 3214 3214 3215 3216 3217
3160 3161 3162 3163 3165 3168 3170 3174 3177 3178 3180 3180 3181 3184 3182 3182 3184 3185 3188 3191 3193 3196 3197 3197 3197 3199 3204 3204 3204 3208 3207 3209 3209 3211 3213 3214 3215 3212 3213 3214 3214 3214 3215 3215 3215
3158 3159 3160 3163 3164 3167 3170 3172 3178 3179 3179 3179 3181 3181 3180 3183 3185 3186 3189 3190 3193 3197 3200 3201 3202 3202 3205 3206 3206 3206 3207 3211 3211 3210 3213 3215 3213 3211 3212 3214 3214 3215 3215 3215 3214
3155 3156 3159 3161 3163 3165 3167 3168 3173 3177 3178 3178 3180 3180 3180 3181 3185 3186 3189 3193 3193 3197 3199 3202 3203 3201 3202 3205 3207 3208 3211 3212 3213 3210 3212 3214 3213 3211 3210 3212 3214 3216 3215 3215 3212
3152 3155 3158 3159 3162 3164 3166 3170 3172 3176 3178 3178 3178 3180 3181 3183 3185 3185 3188 3191 3194 3197 3199 3200 3200 3202 3203 3204 3207 3208 3210 3212 3213 3211 3211 3213 3213 3210 3210 3211 3214 3215 3215 3214 3212
3150 3153 3155 3157 3161 3162 3165 3169 3171 3175 3178 3177 3178 3180 3181 3181 3184 3186 3187 3191 3193 3197 3198 3197 3199 3201 3203 3205 3204 3208 3207 3211 3213 3212 3210 3210 3207 3206 3206 3207 3209 3211 3213 3213 3212
3148 3152 3152 3154 3157 3158 3165 3168 3170 3176 3178 3176 3174 3177 3179 3183 3184 3184 3187 3190 3192 3193 3197 3197 3198 3201 3204 3204 3205 3205 3208 3209 3210 3211 3210 3209 3209 3199 3203 3204 3205 3207 3208 3210 3209
3144 3147 3150 3151 3153 3160 3163 3167 3171 3177 3171 3172 3173 3174 3178 3180 3181 3182 3185 3189 3190 3192 3195 3196 3196 3198 3200 3203 3204 3204 3206 3208 3208 3209 3208 3203 3204 3201 3198 3201 3204 3205 3206 3206 3206
3138 3143 3146 3148 3151 3156 3161 3166 3171 3171 3170 3168 3171 3173 3178 3180 3181 3182 3184 3186 3191 3193 3194 3197 3198 3198 3199 3203 3204 3206 3208 3209 3210 3207 3204 3199 3202 3198 3199 3201 3203 3202 3202 3202 3202
3131 3137 3141 3147 3151 3155 3159 3165 3164 3165 3167 3164 3169 3173 3178 3180 3181 3183 3185 3186 3190 3193 3196 3196 3199 3199 3199 3202 3204 3207 3209 3208 3207 3200 3196 3199 3197 3197 3196 3197 3198 3201 3199 3199 3199
3126 3130 3136 3143 3149 3152 3157 3158 3160 3163 3163 3162 3168 3174 3178 3178 3180 3182 3185 3186 3188 3191 3196 3195 3195 3196 3198 3198 3202 3204 3206 3206 3205 3202 3202 3195 3193 3194 3192 3193 3195 3196 3198 3197 3196
3116 3124 3132 3138 3144 3148 3152 3153 3158 3160 3159 3160 3165 3173 3176 3176 3179 3181 3184 3184 3188 3189 3190 3193 3194 3194 3195 3198 3200 3199 3202 3205 3204 3204 3200 3193 3189 3185 3187 3189 3191 3192 3194 3193 3192
3108 3115 3124 3131 3139 3142 3142 3149 3157 3155 3157 3160 3162 3167 3173 3173 3177 3181 3181 3183 3185 3185 3189 3190 3192 3194 3192 3194 3196 3198 3198 3201 3201 3201 3198 3193 3189 3188 3187 3188 3187 3188 3189 3190 3189
3098 3107 3116 3125 3131 3132 3137 3145 3152 3152 3155 3157 3161 3163 3169 3172 3177 3178 3181 3183 3181 3182 3185 3187 3188 3189 3192 3190 3192 3191 3194 3198 3197 3196 3194 3193 3190 3187 3186 3186 3185 3186 3185 3186 3185
3093 3102 3111 3118 3118 3124 3135 3141 3148 3151 3152 3155 3158 3161 3164 3169 3176 3176 3179 3178 3178 3181 3183 3182 3185 3187 3189 3189 3188 3188 3189 3190 3193 3193 3189 3191 3185 3184 3183 3183 3183 3182 3182 3182 3182
3087 3091 3101 3105 3115 3122 3128 3135 3143 3148 3150 3154 3156 3159 3161 3164 3170 3172 3174 3174 3176 3179 3180 3180 3181 3181 3183 3181 3183 3183 3183 3185 3188 3189 3184 3181 3182 3180 3181 3180 3178 3177 3177 3177 3178
3072 3083 3094 3096 3107 3117 3125 3133 3138 3142 3147 3151 3151 3155 3158 3161 3164 3168 3171 3170 3173 3174 3177 3178 3177 3177 3178 3179 3179 3179 3179 3179 3178 3179 3180 3179 3180 3181 3175 3175 3173 3172 3174 3172 3172
3068 3075 3087 3095 3108 3114 3120 3126 3133 3138 3142 3145 3148 3151 3154 3157 3161 3162 3164 3165 3169 3171 3173 3173 3174 3174 3173 3176 3176 3175 3175 3173 3173 3174 3172 3173 3172 3175 3173 3170 3169 3169 3168 3167 3166
3060 3074 3086 3093 3101 3109 3111 3121 3128 3136 3140 3143 3146 3149 3151 3154 3158 3159 3161 3164 3167 3167 3168 3170 3171 3171 3172 3173 3173 3169 3166 3166 3165 3165 3166 3165 3168 3172 3169 3164 3162 3164 3163 3160 3160